Regional Weather Roundup
Issued by NWS Wilmington, NC

Home | Current Version | Previous Version | Text Only | Print | Product List | Glossary On
Versions: 1 2 3 4 5 6 7 8 9 10 11 12 13 14 15 16 17 18 19 20 21 22 23 24 25 26 27 28 29 30 31 32 33 34 35 36 37 38 39 40 41 42 43 44 45 46 47 48 49 50
069
ASUS42 KILM 081812
RWRILM
RWRILM
REGIONAL HOURLY WEATHER ROUNDUP
NATIONAL WEATHER SERVICE WILMINGTON NC
100 PM EST THU DEC 08 2016

NOTE: "FAIR" INDICATES FEW OR NO CLOUDS BELOW 12,000 FEET WITH NO
SIGNIFICANT WEATHER AND/OR OBSTRUCTIONS TO VISIBILITY.

...............WFO WILMINGTON COUNTY WARNING AREA...............

......COASTAL NC AND SC COUNTIES......

CITY           SKY/WX    TMP DP  RH WIND       PRES   REMARKS
WILMINGTON     MOSUNNY   60  50  69 W9        30.04F
N MYRTLE BEACH CLOUDY    57  51  80 NW6       30.06F
MYRTLE BEACH   NOT AVBL

......INLAND NC AND SC COUNTIES.......

CITY           SKY/WX    TMP DP  RH WIND       PRES   REMARKS
LUMBERTON      CLOUDY    56  48  74 NW8       30.07F
ELIZABETHTOWN  CLOUDY    57  50  77 NW7       30.06F
WHITEVILLE     PTSUNNY   57  48  71 W7        30.06F
FLORENCE       CLOUDY    57  49  74 N12       30.09F
DARLINGTON     CLOUDY    57  47  69 NW9       30.10F
KINGSTREE      PTSUNNY   61  45  55 NW8       30.07F
HARTSVILLE     PTSUNNY   55  45  67 NW6       30.09F
BENNETTSVILLE  PTSUNNY   57  48  72 N10       30.09F
CONWAY         CLOUDY    59  48  67 CALM      30.07F HAZE
GEORGETOWN     FAIR      59  50  72 NW7       30.07F
MARION         CLOUDY    54  46  76 NW6       30.09R

....................REST OF NORTH CAROLINA......................

.........EASTERN NC.........

CITY           SKY/WX    TMP DP  RH WIND       PRES   REMARKS
CAPE HATTERAS  PTSUNNY   61  51  70 W8        29.99
JACKSONVILLE   CLOUDY    56  49  77 NW8       30.05F
MOREHEAD CITY  CLOUDY    58  49  72 W12       30.01F
KENANSVILLE    CLOUDY    54  45  71 NW12      30.06F
NEW BERN       CLOUDY    56  49  77 W13G18    30.04F
ELIZABETH CITY CLOUDY    52  48  86 W10       30.00F

.........CENTRAL NC.........

CITY           SKY/WX    TMP DP  RH WIND       PRES   REMARKS
RALEIGH DURHAM CLOUDY    50  22  33 NW9       30.09F
ROCKY MOUNT    CLOUDY    50  29  44 NW10      30.07F
ROANOKE RAPIDS NOT AVBL
FAYETTEVILLE   CLOUDY    55  40  56 N12       30.07F
HOFFMAN        CLOUDY    53  37  53 N8        30.08S

.........WESTERN NC.........

CITY           SKY/WX    TMP DP  RH WIND       PRES   REMARKS
CHARLOTTE      CLOUDY    52  29  41 NW10G17   30.13S
GREENSBORO     CLOUDY    47  19  33 NW16G24   30.10F
HICKORY        NOT AVBL
BOONE          NOT AVBL
ASHEVILLE      NOT AVBL

.....................REST OF SOUTH CAROLINA.....................

.........EASTERN SC.........

CITY           SKY/WX    TMP DP  RH WIND       PRES   REMARKS
CHARLESTON     MOSUNNY   66  48  52 W9        30.07F
BEAUFORT MCAS  SUNNY     64  44  48 W12G20    30.09F
HILTON HEAD    SUNNY     64  45  48 SW12      30.10F

.........CENTRAL SC.........

CITY           SKY/WX    TMP DP  RH WIND       PRES   REMARKS
COLUMBIA       CLOUDY    56  45  66 N8        30.12F
ORANGEBURG     MOSUNNY   62  44  51 NW8       30.10F
SUMTER SHAW    PTSUNNY   55  46  71 NW10      30.08F

.........WESTERN SC.........

CITY           SKY/WX    TMP DP  RH WIND       PRES   REMARKS
GREENVILLE     NOT AVBL
ROCK HILL      CLOUDY    52  32  46 NW9       30.12F
ANDERSON       CLOUDY    51  23  33 NW16      30.16S
CLEMSON        NOT AVBL
GREENWOOD      CLOUDY    52  43  71 NW8       30.16F


...................COASTAL AND OFFSHORE REPORTS..................

................LOCAL PIERS AND NC RESERVE................


STATION/POSITION TIME  SKY/WX   TEMP    WIND        PRES    VSBY
                                AIR SEA DIR/SP/G
                 (UTC)          (F)     (DEG/KT/KT) (MB)    (MI)
JOHNY MRCER PIER 1736            59 62  290/  9/ 13 1016.1F
NC RESRV MASNBRO 1645            59     290/  3     1017.0
OCEAN CREST PIER NOT AVBL
SPRINGMAID  PIER NOT AVBL


................COASTAL AND OFFSHORE BUOYS................


STATION/POSITION TIME  SKY/WX   TEMP    WIND        PRES    VSBY
                                AIR SEA DIR/SP/G
                 (UTC)          (F)     (DEG/KT/KT) (MB)    (MI)
DIMNDSHOAL 41025 1750            63 78  250/ 19/ 25 1015.0F
WVE H/P(F/S)=  4/11 SWL H/P/D(F/S/D)=  3/ 90/11

CAPE LOOKOUT     1700            56     270/ 16/ 20 1016.8F
ONSLOW BAY 41036 NOT AVBL
ONSLOW BAY 41064 1708            54 70  300/ 14/ 19 1017.6F
ONSLOW BAY 41159 NOT AVBL
5SE WRITBC 41038 1708            56 62  280/ 12/ 17 1017.5F
MASNBO INL 41110 1759               62                N/A
WVE H/P(F/S)=  2/10

WILM HARBR 41108 1756               62                N/A
WVE H/P(F/S)=  3/ 4

27SE WRITB 41037 1708            57 67  290/ 14/ 19 1017.3F
FRYING PAN 41013 1750            61 74  290/ 16/ 19 1017.3F
WVE H/P(F/S)=  3/10 SWL H/P/D(F/S/D)=  2/ 60/10

SUNST NRSH 41024 1708            56 59  320/ 12/ 16 1017.8F
CAPRS NRSH 41029 1708            57 61  320/  8/ 10 1018.5F
EDISTO     41004 1750            60 74  320/ 14/ 17 1017.5F
WVE H/P(F/S)=  3/ 4 SWL H/P/D(F/S/D)=  2/ 70/ 9



..........OFFSHORE BUOYS BEYOND 100 NM OFFSHORE...........
.....IN A TRIANGLE---HAT TO BERMUDA TO BAHAMAS TO HAT.....


STATION/POSITION TIME  SKY/WX   TEMP    WIND        PRES    VSBY
                                AIR SEA DIR/SP/G
                 (UTC)          (F)     (DEG/KT/KT) (MB)    (MI)
150E HAT   41001 NOT AVBL
W BERMUDA  41048 1750            70 72  290/ 12/ 14 1016.6F
WVE H/P(F/S)=  6/ 8 SWL H/P/D(F/S/D)=  5/300/ 8

ATLANTIC S 41049 1750            76 76  250/ 14/ 16 1017.6F
WVE H/P(F/S)=  5/10 SWL H/P/D(F/S/D)=  5/340/10

E BAHAMAS  41046 1750            78 79  230/  2/  6 1018.5F
WVE H/P(F/S)=  3/10 SWL H/P/D(F/S/D)=  3/10

NE BAHAMAS 41047 1750            77 78  340/  2/  4 1017.8F
WVE H/P(F/S)=  4/11 SWL H/P/D(F/S/D)=  3/ 20/11

120E CANVRL41010 NOT AVBL

END




USA.gov is the U.S. government's official web portal to all federal, state and local government web resources and services.